[[{"header":{"parameterUnit":"m.s-1","parameterCategory":1,"la1":30.2991,"la2":30.254,"lo1":-89.0895,"lo2":-89.0444,"dy":0.0017,"dx":0.0017,"nx":28,"ny":28,"refTime":"2025-03-17T03:00:00:Z","depth":0,"parameterNumber":2,"parameterNumberName":"U-component_of_WINDS"},"data":[0,0,0,0,0,0,0,0,0,0,0,0,0,0,0,0,0,0,0,0,0,0,0,0,0,0,0,0,0,0,0,0,0,0,0,0,0,0,0,0,0,0,0,0,0,0,0,0,0,0,0,0,0,0,0,0,0,0,3.3513,3.3514,0,3.362,3.3622,3.3623,3.3591,3.3588,3.3586,3.3584,3.3694,3.3699,3.3704,0,0,0,0,0,0,0,0,0,0,0,0,0,3.328,3.3285,3.3513,3.3514,3.3516,3.362,3.3622,3.3623,3.3591,3.3588,3.3586,3.3583,3.3692,3.3698,3.3704,0,0,0,0,0,0,0,0,0,0,0,0,0,3.3384,3.3286,3.3513,3.3512,3.3513,3.362,3.3622,3.3624,3.3592,3.3588,3.3585,3.3582,3.369,3.3698,3.3705,3.3819,0,0,3.3728,3.3731,0,0,0,0,0,0,0,0,3.3378,3.3393,3.3511,3.3513,3.3514,3.3589,3.358,3.3689,3.3592,3.3562,3.3584,3.358,3.3662,3.3671,3.3699,3.3824,3.3829,3.3729,3.3733,3.3736,3.3739,0,0,0,0,0,0,0,3.3371,3.3388,3.3555,3.3513,3.3515,3.3507,3.3518,3.36,3.3629,3.3564,3.3562,3.3575,3.3662,3.3692,3.3701,3.383,3.3728,3.3735,3.374,3.3743,3.4054,3.4058,0,0,0,0,0,0,3.3363,3.3382,3.3552,3.3559,3.3436,3.3514,3.3526,3.3568,3.3628,3.3634,3.3578,3.3573,3.368,3.3692,3.3705,3.3842,3.3736,3.3743,3.3748,3.405,3.4055,3.4059,0,0,0,0,0,0,3.3358,3.3378,3.3548,3.347,3.3491,3.3521,3.3569,3.3572,3.3602,3.3639,3.3644,3.3603,3.3678,3.3694,3.3791,3.3845,3.3747,3.3754,3.4046,3.4052,3.4057,3.4117,0,0,0,0,0,0,3.3351,3.3377,3.342,3.3471,3.3495,3.3632,3.3572,3.3577,3.3615,3.361,3.3664,3.3669,3.3677,3.378,3.3798,3.3854,3.376,3.4041,3.4049,3.4055,3.411,3.4124,3.4136,0,0,0,0,0,3.3343,3.3433,3.3422,3.3443,3.355,3.3635,3.3649,3.3656,3.3619,3.3663,3.3687,3.3668,3.3837,3.379,3.381,3.3869,3.4038,3.4046,3.4055,3.4104,3.4121,3.4135,0,0,0,0,0,0,3.3387,3.3439,3.3429,3.3537,3.3582,3.3629,3.3685,3.3673,3.3729,3.3722,3.3728,3.374,3.3839,3.3864,3.3811,3.3982,3.3932,3.3945,3.3963,3.3979,3.3991,3.3983,3.3766,0,0,0,0,0,3.3409,3.3474,3.3516,3.3608,3.3631,3.3654,3.3692,3.3693,3.374,3.3758,3.3789,3.3835,3.3899,3.394,3.4,3.4114,3.4125,3.4164,3.4177,3.4187,3.4198,3.426,3.4278,3.4087,3.4087,3.4087,0,0,3.3456,3.3493,3.3533,3.3618,3.3653,3.3719,3.367,3.3743,3.3793,3.3769,3.3862,3.3887,3.3938,3.4044,3.4092,3.4067,3.4254,3.4198,3.4206,3.4212,3.4271,3.4289,3.4305,3.4093,3.4092,3.4091,0,0,3.3575,3.361,3.369,3.3726,3.3779,3.3794,3.3814,3.3863,3.3879,3.3972,3.3956,3.4015,3.4124,3.4162,3.4195,3.433,3.4314,3.4349,3.4416,3.4476,3.4491,3.4504,3.4552,3.4569,3.436,3.436,3.4361,0,3.3626,3.3726,3.3732,3.3807,3.3845,3.3827,3.3908,3.3943,3.4013,3.404,3.4012,3.4149,3.4182,3.4296,3.4329,3.4357,3.4379,3.4343,3.4488,3.4502,3.4514,3.456,3.4578,3.4364,3.4364,3.4364,3.4363,0,3.3787,3.3857,3.3915,3.3984,3.4028,3.4106,3.4123,3.4168,3.4166,3.4184,3.4279,3.4319,3.4387,3.4415,3.4413,3.4529,3.4512,3.4486,3.4435,3.4536,3.4579,3.4597,3.437,3.4369,3.4367,3.4366,0,0,3.3936,3.4007,3.4028,3.406,3.4118,3.4172,3.4249,3.4316,3.4353,3.4403,3.4468,3.4561,3.4537,3.4575,3.4578,3.4631,3.4735,3.4599,3.46,3.4622,3.4865,3.4883,3.4903,3.4725,3.4729,3.4731,3.486,0,3.4059,3.4195,3.4202,3.4325,3.439,3.4374,3.4441,3.4484,3.4503,3.4561,3.4582,3.4648,3.4612,3.4635,3.4687,3.4711,3.4784,3.4702,3.4785,3.4788,3.4772,3.4926,3.4946,3.5065,3.4877,3.488,3.4882,0,3.4222,3.4276,3.4405,3.4455,3.4482,3.4542,3.4604,3.466,3.4708,3.4719,3.4762,3.4757,3.4836,3.4783,3.4892,3.4837,3.4871,3.4888,3.4893,3.4901,3.4841,3.4937,3.5104,3.5121,3.4909,3.4906,3.4905,0,3.4317,3.4423,3.4514,3.4541,3.4601,3.4643,3.467,3.4716,3.4756,3.481,3.4836,3.4899,3.4933,3.4982,3.4995,3.4955,3.5104,3.5052,3.5114,3.5114,3.5146,3.5143,3.532,3.5169,3.5169,3.5169,3.5168,0,3.4454,3.4533,3.4557,3.4613,3.4702,3.4711,3.4798,3.4822,3.4863,3.4923,3.4914,3.4971,3.4985,3.5044,3.5055,3.5143,3.5159,3.517,3.5171,3.517,3.5169,3.5192,3.5184,3.5173,3.5172,3.5171,3.5171,0,3.4575,3.4594,3.4692,3.4741,3.4755,3.4818,3.486,3.4914,3.4932,3.5009,3.5027,3.5056,3.5126,3.5144,3.5227,3.5234,3.5339,3.5333,3.5322,3.5322,3.5383,3.5377,3.558,3.5607,3.5439,3.5441,3.5442,0,3.4661,3.4721,3.4777,3.4817,3.4846,3.491,3.4951,3.4962,3.5004,3.5065,3.5111,3.518,3.5235,3.5348,3.5376,3.544,3.5435,3.5502,3.5445,3.5442,3.5436,3.5432,3.5438,3.5513,3.5515,3.5516,3.5517,0,3.4811,3.4818,3.4876,3.4939,3.4988,3.5038,3.5086,3.5119,3.5137,3.5185,3.5256,3.53,3.5385,3.5453,3.5518,3.5545,3.5535,3.5535,3.5553,3.5552,3.5543,3.5548,3.5351,3.553,3.5529,3.5528,3.5527,3.5527,3.4917,3.497,3.5017,3.5083,3.5121,3.5166,3.5218,3.5244,3.5303,3.5373,3.5376,3.5454,3.5502,3.5587,3.5619,3.5679,3.5659,3.5685,3.5691,3.5697,3.5702,3.5534,3.5691,3.5691,3.5691,3.569,3.569,0,3.5066,3.5096,3.5157,3.5224,3.5276,3.5261,3.5314,3.5358,3.5426,3.5472,3.5527,3.5609,3.5675,3.5709,3.5775,3.5817,3.5814,3.5834,3.583,3.5837,3.5717,3.5695,3.5835,3.5835,3.5835,3.5835,3.5835,3.5835,3.515,3.5239,3.5251,3.5359,3.5389,3.5464,3.5495,3.5537,3.5573,3.5665,3.572,3.5742,3.5783,3.5852,3.5912,3.592,3.5945,3.5968,3.5973,3.586,3.5846,3.5831,3.581,3.5973,3.5973,3.6088,3.6089,3.609]},{"header":{"parameterUnit":"m.s-1","parameterCategory":1,"la1":30.2991,"la2":30.254,"lo1":-89.0895,"lo2":-89.0444,"dy":0.0017,"dx":0.0017,"nx":28,"ny":28,"refTime":"2025-03-17T03:00:00:Z","depth":0,"parameterNumber":3,"parameterNumberName":"V-component_of_WINDS"},"data":[0,0,0,0,0,0,0,0,0,0,0,0,0,0,0,0,0,0,0,0,0,0,0,0,0,0,0,0,0,0,0,0,0,0,0,0,0,0,0,0,0,0,0,0,0,0,0,0,0,0,0,0,0,0,0,0,0,0,-3.4153,-3.4155,0,-3.4362,-3.4365,-3.4367,-3.435,-3.4347,-3.4343,-3.434,-3.4559,-3.4568,-3.4576,0,0,0,0,0,0,0,0,0,0,0,0,0,-3.3742,-3.3749,-3.4152,-3.4155,-3.4158,-3.4362,-3.4365,-3.4368,-3.435,-3.4346,-3.4343,-3.4339,-3.4556,-3.4567,-3.4577,0,0,0,0,0,0,0,0,0,0,0,0,0,-3.3933,-3.3752,-3.4152,-3.4173,-3.4177,-3.4361,-3.4365,-3.4368,-3.4351,-3.4346,-3.4342,-3.4337,-3.4553,-3.4566,-3.4579,-3.4756,0,0,-3.4619,-3.4625,0,0,0,0,0,0,0,0,-3.3922,-3.3948,-3.4168,-3.4172,-3.4177,-3.4325,-3.43,-3.4499,-3.4352,-3.4285,-3.434,-3.4335,-3.4485,-3.4504,-3.4554,-3.4766,-3.4775,-3.462,-3.4628,-3.4634,-3.4638,0,0,0,0,0,0,0,-3.3909,-3.3939,-3.4236,-3.4171,-3.4177,-3.4174,-3.4196,-3.4338,-3.441,-3.4291,-3.429,-3.4315,-3.4487,-3.4541,-3.4559,-3.4779,-3.462,-3.4632,-3.464,-3.4645,-3.5149,-3.5155,0,0,0,0,0,0,-3.389,-3.3928,-3.4229,-3.4242,-3.4035,-3.4186,-3.421,-3.4282,-3.4408,-3.4423,-3.4319,-3.4313,-3.4521,-3.4543,-3.4566,-3.4784,-3.4634,-3.4646,-3.4654,-3.5144,-3.5151,-3.5157,0,0,0,0,0,0,-3.3881,-3.3917,-3.422,-3.4085,-3.4123,-3.4198,-3.4279,-3.4289,-3.4343,-3.4429,-3.4442,-3.436,-3.4518,-3.4548,-3.4709,-3.4791,-3.4652,-3.4664,-3.5138,-3.5146,-3.5154,-3.5219,0,0,0,0,0,0,-3.3869,-3.3914,-3.3981,-3.4086,-3.413,-3.4358,-3.4284,-3.4297,-3.4365,-3.436,-3.4472,-3.4486,-3.4517,-3.469,-3.4722,-3.4807,-3.4674,-3.5131,-3.5141,-3.5151,-3.521,-3.5228,-3.5244,0,0,0,0,0,-3.3855,-3.3991,-3.3984,-3.4021,-3.4215,-3.4363,-3.4388,-3.442,-3.4372,-3.4441,-3.4496,-3.4482,-3.4777,-3.4706,-3.4743,-3.4833,-3.5126,-3.5138,-3.515,-3.5202,-3.5225,-3.5244,0,0,0,0,0,0,-3.3894,-3.4005,-3.3999,-3.4173,-3.4259,-3.436,-3.4447,-3.4443,-3.4545,-3.4536,-3.4572,-3.4597,-3.476,-3.4812,-3.4732,-3.5012,-3.4945,-3.4965,-3.4972,-3.4994,-3.5011,-3.4995,-3.4685,0,0,0,0,0,-3.3923,-3.4032,-3.4124,-3.4269,-3.4312,-3.4372,-3.4438,-3.4455,-3.4545,-3.4582,-3.4649,-3.4739,-3.4852,-3.4926,-3.5034,-3.5217,-3.5242,-3.5297,-3.5314,-3.5328,-3.5345,-3.5448,-3.5474,-3.5197,-3.5197,-3.5197,0,0,-3.3984,-3.4058,-3.4125,-3.4279,-3.4347,-3.4461,-3.4403,-3.4526,-3.4611,-3.4601,-3.4758,-3.481,-3.4913,-3.5086,-3.5166,-3.5135,-3.5427,-3.5344,-3.5354,-3.5364,-3.5464,-3.549,-3.5513,-3.5206,-3.5204,-3.5203,0,0,-3.4153,-3.422,-3.4348,-3.4418,-3.4522,-3.4562,-3.4592,-3.4695,-3.473,-3.4887,-3.4882,-3.4985,-3.5178,-3.5252,-3.5315,-3.5514,-3.5506,-3.5549,-3.5639,-3.5739,-3.5761,-3.578,-3.5854,-3.5879,-3.5566,-3.5566,-3.5566,0,-3.4217,-3.4387,-3.4416,-3.454,-3.4609,-3.4603,-3.4736,-3.4802,-3.4937,-3.4985,-3.4948,-3.5192,-3.526,-3.5452,-3.5501,-3.5551,-3.5589,-3.5537,-3.5755,-3.5775,-3.5794,-3.5864,-3.5891,-3.557,-3.557,-3.5569,-3.5569,0,-3.446,-3.4578,-3.467,-3.4799,-3.4878,-3.5006,-3.5056,-3.5133,-3.5143,-3.5187,-3.5349,-3.5431,-3.5557,-3.5604,-3.5615,-3.5798,-3.5776,-3.5747,-3.568,-3.5824,-3.5891,-3.5918,-3.5577,-3.5575,-3.5574,-3.5573,0,0,-3.4661,-3.4804,-3.4838,-3.4897,-3.5012,-3.5105,-3.5233,-3.5355,-3.5421,-3.5515,-3.5625,-3.5789,-3.5763,-3.5834,-3.5854,-3.5942,-3.6097,-3.5902,-3.5905,-3.5937,-3.6306,-3.6329,-3.6359,-3.6092,-3.6097,-3.6101,-3.6298,0,-3.4843,-3.5068,-3.5099,-3.5299,-3.541,-3.5408,-3.552,-3.5603,-3.5648,-3.575,-3.58,-3.5917,-3.5873,-3.5916,-3.6002,-3.606,-3.6172,-3.6046,-3.6197,-3.6201,-3.6172,-3.6393,-3.6417,-3.6599,-3.6324,-3.6329,-3.6332,0,-3.5086,-3.5185,-3.5396,-3.5497,-3.5545,-3.5645,-3.576,-3.5857,-3.5953,-3.598,-3.606,-3.6069,-3.6205,-3.6132,-3.632,-3.6233,-3.6297,-3.6334,-3.6342,-3.6359,-3.6276,-3.6418,-3.6658,-3.6686,-3.6373,-3.6369,-3.6366,0,-3.5213,-3.54,-3.555,-3.5601,-3.5722,-3.5793,-3.5847,-3.5938,-3.601,-3.6111,-3.6159,-3.6275,-3.6339,-3.643,-3.6471,-3.6414,-3.6658,-3.6588,-3.6686,-3.6685,-3.6738,-3.6735,-3.6994,-3.6776,-3.6776,-3.6775,-3.6775,0,-3.5414,-3.5544,-3.5609,-3.5702,-3.5849,-3.5883,-3.6028,-3.608,-3.6161,-3.6265,-3.627,-3.6369,-3.6417,-3.6523,-3.6557,-3.6709,-3.6737,-3.6764,-3.6772,-3.6765,-3.6762,-3.6808,-3.6797,-3.6783,-3.6781,-3.678,-3.6778,0,-3.5582,-3.563,-3.5795,-3.5896,-3.5924,-3.6028,-3.6116,-3.6207,-3.6251,-3.6384,-3.6417,-3.6487,-3.6613,-3.6663,-3.6817,-3.6839,-3.7015,-3.7012,-3.6983,-3.6985,-3.7081,-3.7072,-3.7381,-3.7424,-3.7176,-3.7178,-3.718,0,-3.5708,-3.5807,-3.5919,-3.5989,-3.6045,-3.6157,-3.6231,-3.6269,-3.6346,-3.6464,-3.6542,-3.6667,-3.6769,-3.6971,-3.7037,-3.7155,-3.7156,-3.7256,-3.7174,-3.7165,-3.716,-3.7155,-3.7166,-3.7272,-3.7274,-3.7276,-3.7278,0,-3.5927,-3.5946,-3.6051,-3.6165,-3.6253,-3.6345,-3.6434,-3.6492,-3.6544,-3.6631,-3.6759,-3.6838,-3.6996,-3.7121,-3.7243,-3.7301,-3.73,-3.7303,-3.7332,-3.7327,-3.7307,-3.7321,-3.7026,-3.7296,-3.7294,-3.7293,-3.7292,-3.7291,-3.6079,-3.6168,-3.6261,-3.6378,-3.645,-3.6534,-3.6625,-3.6681,-3.6787,-3.6918,-3.6934,-3.7073,-3.7168,-3.7332,-3.7395,-3.7505,-3.7479,-3.7521,-3.7532,-3.7542,-3.755,-3.7288,-3.7527,-3.7527,-3.7526,-3.7526,-3.7526,0,-3.63,-3.636,-3.6467,-3.6592,-3.6685,-3.6674,-3.6773,-3.6852,-3.6973,-3.7061,-3.7162,-3.731,-3.7432,-3.7508,-3.7631,-3.7705,-3.7708,-3.7736,-3.7732,-3.7746,-3.7565,-3.7528,-3.7732,-3.7732,-3.7732,-3.7732,-3.7732,-3.7732,-3.6426,-3.6577,-3.6608,-3.6795,-3.6855,-3.6989,-3.7047,-3.7125,-3.7196,-3.7361,-3.7462,-3.751,-3.7594,-3.7724,-3.7836,-3.7855,-3.7901,-3.7932,-3.795,-3.778,-3.7759,-3.7738,-3.7704,-3.7942,-3.7942,-3.8123,-3.8124,-3.8126]}]]